Starlink 3114

operational
NORAD ID: 49426 Int'l Des: 2021-104 Owner: SPXS Country: US Constellation: starlink
LEOCIRCULAR

Über Starlink 3114

Beschreibung wird geladen...

Live-Position

3D-Globus wird geladen...

Nächste Überflüge

Höhenverlauf

Altitude vs Time

uPlot chart will show altitude changes over time

Zweizeiliger Elementsatz

1 49426U 21104U 25257.41765856 .00000401 00000-0 43265-4 0 9995
2 49426 53.2170 300.4375 0001305 86.1321 273.9821 15.08838379212017
Epoch: 14. Sept. 2025 • Age: 25 hours

Aktueller Status

Höhe 540.3 km
Geschwindigkeit 7.59 km/s
Subsatellitenpunkt 2.99°N, 40.76°W
Startdatum 13. Nov. 2021
Alter 3.8 years
Typ internet

Technische Details

Klassifizierung Payload
Masse 290.00 kg
Trockenmasse 270.00 kg
Gesamtmasse 290.00 kg
Länge 0.20 m
Durchmesser 2.80 m
Spannweite 9.00 m
Form Box + pan
Hersteller SPXS
Bus-Typ Starlink
Phasenstatus In Orbit
Besitzer/Staat SPXS/US

Große Konstellationen

Loading constellations...